Content
SEND FEEDBACK

Daily
Averages
Monthly
Summary
United States of America

CASTALIA, OHIO


Home > North America > United States > Ohio
Elevation: 589 feet     Latitude: 41 27N     Longitude: 082 43W

WEATHER
 
SELECT A DAY
Number of Records: 184,005;   Date Range: 10/8/98 - 10/30/14
 
SHARE

PRINT THIS DATA

[ ← Previous Day ]
WEATHER ALMANAC - DECEMBER 31, 2013
[ Next Day → ]
[ °C ]   °F
Weather ElementAverageHighLow
Temperature20.2 °F24.1 °F (1:53 am)17.6 °F (9:09 am)
Dewpoint13 °F17.1 °F (12:53 am)7 °F (2:53 pm)
Humidity74.1 %86 % (10:09 pm)59 % (2:53 pm)
Barometer30.21 in30.36 in (11:53 pm)30.06 in (4:20 am)
Wind Speed11.7 mph19.6 mph (12:29 pm)
Wind Gust29.9 mph (7:09 am)
Weather ElementAverage
Visibility4.9 mi
Wind DirectionW (270 °)

Weather ElementTotal
Precipitation---
Heating Degree Days44.2 (Base 65)
Averaged from 53 records on December 31, 2013
WEATHER CONDITIONS BREAKOUT
WIND DIRECTION BREAKOUT
WEATHER BY HOUR - DECEMBER 31, 2013
[ °C ]   °F
Local TimeTemperatureDewpointHumidityBarometerVisibilityWind DirectionWind SpeedGust SpeedPrecipitationEventsConditions
12:53 AM23.0 °F17.1 °F78 %30.13 in10.0 miSW (220°)3.5 mphOvercast
1:53 AM24.1 °F14.0 °F65 %30.12 in9.0 miWSW (240°)9.2 mphOvercast
2:44 AM23.0 °F15.8 °F74 %30.09 in2.5 miWest (260°)12.7 mph0.00 inSnowLight Snow
2:53 AM23.0 °F15.1 °F72 %30.13 in3.0 miWest (260°)16.1 mph0.00 inSnowLight Snow
3:32 AM21.2 °F15.8 °F80 %30.08 in2.5 miWSW (250°)11.5 mph0.00 inSnowLight Snow
3:53 AM21.9 °F16.0 °F78 %30.12 in2.0 miWest (260°)11.5 mph0.00 inSnowLight Snow
4:20 AM21.2 °F15.8 °F80 %30.06 in3.0 miWest (260°)12.7 mph0.00 inSnowLight Snow
4:30 AM21.2 °F15.8 °F80 %30.06 in1.8 miWest (270°)10.4 mph0.00 inSnowLight Snow
4:42 AM21.2 °F15.8 °F80 %30.06 in2.0 miWest (270°)11.5 mph17.3 mph0.00 inSnowLight Snow
4:51 AM21.2 °F15.8 °F80 %30.06 in1.5 miWest (270°)10.4 mph0.00 inSnowLight Snow
4:53 AM21.9 °F16.0 °F78 %30.09 in1.5 miWest (270°)8.1 mph0.00 inSnowLight Snow
5:21 AM21.2 °F15.8 °F80 %30.06 in2.0 miWest (260°)12.7 mph0.00 inSnowLight Snow
5:45 AM21.2 °F15.8 °F80 %30.06 in3.0 miWest (260°)15.0 mph0.00 inSnowLight Snow
5:53 AM21.9 °F15.1 °F75 %30.10 in3.0 miWest (260°)16.1 mph0.00 inSnowLight Snow
6:01 AM21.2 °F15.8 °F80 %30.06 in2.5 miWest (260°)12.7 mph23.0 mph0.00 inSnowLight Snow
6:06 AM21.2 °F15.8 °F80 %30.06 in1.8 miWSW (250°)17.3 mph23.0 mph0.00 inSnowLight Snow
6:21 AM21.2 °F15.8 °F80 %30.08 in2.0 miWest (260°)15.0 mph0.00 inSnowLight Snow
6:32 AM21.2 °F15.8 °F80 %30.08 in1.2 miWest (280°)15.0 mph23.0 mph0.00 inSnowLight Snow
6:53 AM19.9 °F12.9 °F74 %30.13 in3.0 miWest (270°)15.0 mph24.2 mph0.00 inSnowLight Snow
7:04 AM19.4 °F14.0 °F80 %30.10 in1.8 miWNW (290°)17.3 mph23.0 mph0.00 inSnowLight Snow
7:09 AM19.4 °F12.2 °F74 %30.10 in2.0 miWNW (290°)16.1 mph29.9 mph0.00 inSnowLight Snow
7:19 AM19.4 °F10.4 °F68 %30.10 in8.0 miWest (280°)16.1 mph27.6 mph0.00 inSnowLight Snow
7:53 AM18.0 °F9.0 °F68 %30.15 in6.0 miWNW (290°)11.5 mph20.7 mph0.00 inSnowLight Snow
8:53 AM18.0 °F9.0 °F68 %30.19 in10.0 miWest (280°)13.8 mph0.00 inOvercast
9:09 AM17.6 °F8.6 °F68 %30.16 in10.0 miWest (280°)12.7 mph24.2 mphOvercast
9:53 AM18.0 °F9.0 °F68 %30.23 in7.0 miWNW (290°)15.0 mph23.0 mph0.00 inSnowLight Snow
10:53 AM19.0 °F8.1 °F62 %30.27 in5.0 miWest (280°)18.4 mph27.6 mph0.00 inSnowLight Snow
11:53 AM19.0 °F9.0 °F65 %30.29 in8.0 miWNW (290°)13.8 mph27.6 mph0.00 inSnowLight Snow
12:29 PM19.4 °F8.6 °F63 %30.26 in10.0 miWest (260°)19.6 mph0.00 inOvercast
12:36 PM19.4 °F8.6 °F63 %30.26 in10.0 miWest (260°)17.3 mph25.3 mph0.00 inOvercast
12:53 PM19.9 °F9.0 °F62 %30.31 in9.0 miWest (280°)15.0 mph27.6 mph0.00 inOvercast
1:53 PM19.9 °F8.1 °F60 %30.33 in10.0 miWest (260°)17.3 mph27.6 mph0.00 inOvercast
2:53 PM19.0 °F7.0 °F59 %30.30 in10.0 miWest (260°)12.7 mph23.0 mph0.00 inScattered Clouds
3:53 PM19.9 °F8.1 °F60 %30.31 in10.0 miWSW (250°)15.0 mphMostly Cloudy
4:15 PM19.4 °F8.6 °F63 %30.27 in10.0 miWSW (250°)13.8 mphMostly Cloudy
4:25 PM19.4 °F8.6 °F63 %30.27 in10.0 miWSW (250°)16.1 mphScattered Clouds
4:53 PM19.0 °F9.0 °F65 %30.31 in10.0 miWSW (250°)12.7 mphScattered Clouds
5:53 PM19.9 °F10.0 °F65 %30.31 in10.0 miWSW (250°)10.4 mphOvercast
6:53 PM19.9 °F10.9 °F68 %30.32 in10.0 miWest (260°)8.1 mphOvercast
7:53 PM19.9 °F12.0 °F71 %30.32 in10.0 miWest (270°)8.1 mphOvercast
8:41 PM19.4 °F12.2 °F74 %30.29 in2.5 miWest (260°)9.2 mph0.00 inSnowLight Snow
8:53 PM19.9 °F14.0 °F78 %30.34 in2.0 miWest (280°)8.1 mph0.00 inSnowLight Snow
9:37 PM19.4 °F14.0 °F80 %30.29 in2.5 miWNW (290°)5.8 mph0.00 inSnowLight Snow
9:53 PM19.9 °F14.0 °F78 %30.34 in3.0 miWest (280°)6.9 mph0.00 inSnowLight Snow
10:00 PM19.4 °F14.0 °F80 %30.29 in2.5 miWNW (290°)4.6 mph0.00 inSnowLight Snow
10:09 PM19.4 °F15.8 °F86 %30.30 in1.5 miWNW (290°)4.6 mph0.00 inSnowLight Snow
10:15 PM19.4 °F15.8 °F86 %30.30 in2.5 miWNW (290°)5.8 mph0.00 inSnowLight Snow
10:31 PM19.4 °F15.8 °F86 %30.30 in1.8 miWNW (290°)5.8 mph0.00 inSnowLight Snow
10:53 PM19.9 °F15.1 °F81 %30.35 in2.0 miWNW (290°)6.9 mph0.00 inSnowLight Snow
11:13 PM19.4 °F15.8 °F86 %30.31 in1.8 miWNW (290°)8.1 mph0.00 inSnowLight Snow
11:28 PM19.4 °F15.8 °F86 %30.31 in2.0 miWNW (290°)6.9 mph0.00 inSnowLight Snow
11:37 PM19.4 °F15.8 °F86 %30.31 in1.8 miWNW (290°)5.8 mph0.00 inSnowLight Snow
11:53 PM19.9 °F15.1 °F81 %30.36 in1.2 miWest (280°)5.8 mph0.00 inSnowLight Snow
Hourly data recorded from KLPR, located miles away from Castalia, Ohio







STORIES FROM OUR PARTNERS